Temperature
5 5 5 4 4 4 4 4 4 4 4 4 4 4 5 5 5 4 4 5 5 5 4 4 4 4 4 4 4 4 4 4 3 3 3 3 3 3 3 3 3 3 3
4 4 4 4 4 4 4 4 4 4 4 4 4 4 4 4 4 4 4 4 4 4 4 4 4 4 3 3 3 3 3 3 3 3 3 3 3 3 3 3 3 3 3
4 4 4 3 3 3 3 3 3 3 3 3 3 3 3 4 4 4 3 4 4 4 3 3 3 3 3 3 3 3 3 3 2 2 2 2 2 2 2 2 2 2 2
4 3 3 3 3 3 3 3 3 3 3 3 3 3 3 3 3 3 3 3 3 3 3 3 3 3 3 2 2 2 2 2 2 1 1 1 1 1 1 1 1 1 1
3 3 3 2 2 2 2 2 2 2 2 2 2 2 2 2 2 2 2 2 2 2 2 2 2 2 2 2 2 2 2 1 1 1 1 1 1 0 0 0 0 0 0
3 3 2 2 2 2 2 2 2 2 2 2 2 2 2 2 2 2 2 2 2 2 2 2 2 1 1 1 1 1 1 1 1 0 0 0 -0 -0 -0 -0 -1 -1 -1
2 2 2 2 2 2 1 1 1 1 1 1 1 1 1 2 2 1 1 1 1 1 1 1 1 1 1 1 1 1 1 0 0 0 -0 -0 -1 -1 -1 -1 -1 -1 -2
2 2 2 2 2 1 1 1 1 1 1 1 1 1 1 1 1 1 1 1 1 1 1 0 0 0 0 -0 -0 -0 -0 -0 -0 -0 -1 -1 -1 -1 -1 -1 -2 -2 -2
1 1 1 1 1 1 1 1 1 0 0 0 0 -0 -0 0 0 0 0 0 0 0 0 -0 -0 -0 -1 -1 -1 -1 -1 -1 -1 -1 -1 -1 -2 -2 -2 -2 -2 -3 -3
1 1 1 1 1 1 0 0 0 -0 -0 -0 -0 -0 -1 -1 -1 -1 -1 -1 -1 -1 -1 -1 -1 -1 -1 -1 -1 -1 -2 -2 -2 -2 -2 -2 -2 -2 -2 -3 -3 -3 -4
1 0 0 0 0 -0 -0 -0 -0 -1 -1 -1 -1 -1 -1 -1 -1 -1 -1 -2 -1 -1 -2 -2 -2 -2 -2 -2 -2 -2 -2 -2 -2 -3 -3 -3 -3 -3 -3 -3 -4 -4 -4
0 0 -0 -0 -0 -1 -1 -1 -1 -1 -1 -1 -1 -2 -2 -2 -2 -2 -2 -2 -2 -2 -2 -2 -2 -2 -2 -2 -3 -3 -3 -3 -3 -3 -3 -4 -4 -4 -4 -4 -4 -4 -4
-0 -0 -0 -1 -1 -1 -1 -1 -1 -2 -2 -2 -2 -2 -2 -2 -2 -2 -2 -2 -2 -2 -2 -3 -3 -3 -3 -3 -3 -3 -3 -4 -4 -4 -4 -4 -4 -4 -4 -4 -5 -5 -5
-1 -1 -1 -1 -1 -1 -1 -2 -2 -2 -2 -2 -2 -3 -3 -3 -3 -3 -3 -3 -3 -3 -3 -3 -3 -3 -4 -4 -4 -4 -4 -4 -4 -4 -4 -4 -5 -5 -5 -5 -5 -5 -5
-1 -1 -1 -1 -1 -1 -2 -2 -2 -2 -2 -3 -3 -3 -3 -3 -3 -3 -3 -4 -4 -4 -4 -4 -4 -4 -4 -4 -4 -4 -4 -5 -5 -5 -5 -5 -5 -5 -5 -6 -6 -6 -6
-1 -1 -2 -2 -2 -2 -2 -2 -2 -3 -3 -3 -3 -3 -3 -3 -4 -4 -4 -4 -4 -4 -4 -4 -4 -4 -4 -4 -5 -5 -5 -5 -5 -5 -5 -5 -6 -6 -6 -6 -6 -7 -7
-2 -2 -2 -2 -2 -2 -2 -3 -3 -3 -3 -3 -4 -4 -4 -4 -4 -4 -4 -4 -4 -4 -5 -5 -5 -5 -5 -5 -5 -5 -5 -5 -5 -6 -6 -6 -6 -6 -6 -6 -7 -7 -7
-2 -2 -3 -3 -3 -3 -3 -3 -3 -4 -4 -4 -4 -4 -4 -4 -4 -4 -4 -5 -5 -5 -5 -5 -5 -5 -5 -5 -5 -5 -5 -6 -6 -6 -6 -6 -6 -7 -7 -7 -7 -7 -7
-3 -3 -3 -3 -3 -3 -3 -4 -4 -4 -4 -4 -4 -4 -4 -5 -5 -5 -5 -5 -5 -5 -5 -5 -5 -5 -5 -5 -6 -6 -6 -6 -6 -6 -6 -6 -7 -7 -7 -7 -7 -7 -8
-3 -3 -3 -3 -4 -4 -4 -4 -4 -4 -4 -5 -5 -5 -5 -5 -5 -5 -5 -5 -5 -6 -6 -6 -6 -6 -6 -6 -6 -6 -6 -6 -6 -7 -7 -7 -7 -7 -7 -8 -8 -8 -8
-3 -4 -4 -4 -4 -4 -4 -4 -4 -5 -5 -5 -5 -5 -5 -5 -5 -5 -6 -6 -6 -6 -6 -6 -6 -6 -6 -6 -6 -6 -7 -7 -7 -7 -7 -7 -7 -8 -8 -8 -8 -8 -8
-4 -4 -4 -4 -4 -4 -5 -5 -5 -5 -5 -5 -5 -5 -5 -6 -6 -6 -6 -6 -6 -6 -6 -6 -6 -6 -6 -7 -7 -7 -7 -7 -7 -7 -7 -8 -8 -8 -8 -8 -8 -8 -8
-4 -4 -4 -5 -5 -5 -5 -5 -5 -5 -5 -6 -6 -6 -6 -6 -6 -6 -6 -6 -6 -6 -6 -6 -7 -7 -7 -7 -7 -7 -7 -7 -7 -8 -8 -8 -8 -8 -8 -8 -8 -9 -9
-5 -5 -5 -5 -5 -5 -5 -5 -6 -6 -6 -6 -6 -6 -6 -6 -6 -6 -6 -6 -6 -7 -7 -7 -7 -7 -7 -7 -7 -7 -7 -8 -8 -8 -8 -8 -8 -8 -8 -8 -9 -9 -9
-5 -5 -5 -5 -6 -6 -6 -6 -6 -6 -6 -6 -6 -6 -6 -6 -6 -6 -7 -7 -7 -7 -7 -7 -7 -7 -7 -7 -7 -8 -8 -8 -8 -8 -8 -8 -8 -8 -9 -9 -9 -9 -9
-5 -5 -6 -6 -6 -6 -6 -6 -6 -6 -6 -6 -7 -7 -7 -7 -7 -7 -7 -7 -7 -7 -7 -7 -7 -7 -7 -7 -8 -8 -8 -8 -8 -8 -8 -8 -8 -9 -9 -9 -9 -9 -9
Wind_Speed
4 4 4 4 4 4 4 4 3 3 3 3 3 4 3 3 3 3 3 3 3 3 3 4 4 4 3 3 3 3 4 4 5 4 3 3 4 4 4 4 4 4 4
4 4 4 4 4 4 4 4 3 3 3 3 3 3 3 3 3 3 3 4 4 5 5 4 4 4 4 4 3 4 4 4 4 5 4 3 4 4 4 4 4 4 4
3 4 4 4 4 4 4 4 4 4 3 3 3 3 3 3 3 4 4 4 4 5 5 6 5 5 5 4 4 4 4 3 4 4 4 3 3 3 3 4 4 4 4
4 4 4 5 5 4 4 4 4 4 3 3 3 3 3 3 3 3 3 4 3 4 4 5 5 6 6 5 4 5 4 4 4 4 3 3 3 3 3 3 3 3 3
4 4 5 4 4 4 4 4 4 4 4 4 3 3 3 3 3 3 3 3 3 3 3 3 4 4 5 5 4 5 5 4 4 4 4 3 3 2 3 3 3 3 4
4 4 4 4 4 4 5 4 4 4 3 3 3 3 3 2 3 4 3 3 3 3 3 2 2 4 4 5 6 6 6 6 5 5 4 4 4 3 3 3 3 3 4
4 4 3 4 4 4 4 4 4 4 3 4 3 3 3 3 3 4 3 3 3 3 3 3 2 2 3 3 4 5 5 6 5 4 5 5 4 4 3 4 4 4 4
4 4 4 4 4 4 4 4 4 4 4 4 4 3 3 3 4 4 3 3 3 3 3 3 2 2 2 3 3 3 4 4 4 4 4 4 3 3 4 4 4 4 4
4 4 4 4 4 4 5 5 4 4 4 3 3 3 4 4 4 4 3 2 2 2 3 3 3 3 3 3 4 4 4 4 3 4 4 3 3 3 3 2 2 3 4
5 5 4 4 5 5 5 4 4 4 4 3 3 3 4 4 4 4 4 2 2 2 2 3 4 4 4 4 4 4 4 4 3 3 3 3 3 3 4 4 3 4 3
4 4 4 5 5 5 5 4 4 4 4 4 4 3 4 4 4 5 4 3 3 2 2 2 3 4 4 4 4 3 4 3 3 3 3 3 2 2 3 3 4 4 4
3 4 4 4 4 4 4 4 4 4 4 4 3 3 3 3 3 4 5 4 3 3 3 3 3 4 4 4 4 3 3 3 3 3 3 3 3 3 3 3 4 5 5
3 4 4 4 4 4 5 5 4 4 4 4 3 3 3 2 3 4 5 5 4 3 3 3 4 4 3 3 4 4 3 2 3 3 4 3 3 3 3 3 4 4 5
4 4 4 4 4 4 4 4 4 5 5 4 4 4 3 3 3 3 3 3 4 3 3 3 3 3 3 3 3 3 2 2 3 3 3 3 2 3 3 3 3 3 3
4 4 4 4 4 4 4 4 5 5 5 5 4 4 4 4 4 5 4 3 3 3 2 2 2 2 2 3 3 2 2 3 3 3 3 3 3 3 3 3 3 3 4
4 4 4 4 3 3 3 3 3 5 5 6 5 5 4 5 5 6 6 6 5 4 4 3 3 3 4 4 4 3 3 4 3 3 3 4 4 4 4 3 4 4 5
4 4 3 4 4 4 4 3 3 3 4 5 6 6 5 5 5 5 6 6 5 5 4 4 4 4 4 4 4 4 4 4 3 4 4 4 4 4 4 4 4 4 5
4 4 4 4 4 4 4 4 4 3 3 3 4 6 6 6 5 5 5 4 4 4 4 4 4 4 4 4 4 4 4 3 3 4 4 4 4 4 5 5 5 5 5
3 3 3 3 3 4 4 4 3 4 3 3 2 3 4 5 5 4 4 4 4 4 4 4 4 4 4 4 4 4 4 4 4 4 4 4 4 4 5 5 5 6 6
3 3 3 3 3 3 3 3 3 3 3 3 3 2 2 3 3 3 4 3 4 4 4 4 4 4 4 4 4 4 4 4 4 5 5 5 4 5 5 6 5 5 5
2 3 4 3 3 3 3 4 4 3 3 3 3 3 3 3 3 4 4 4 4 4 4 4 4 4 4 4 4 4 5 5 5 5 5 5 5 5 5 5 5 5 5
2 2 2 2 2 2 3 3 3 3 3 3 3 3 5 3 3 3 4 4 4 4 4 4 4 4 4 4 4 5 5 5 5 5 5 5 5 5 5 5 5 5 5
2 2 2 2 2 3 2 2 2 2 2 3 2 2 3 3 3 3 3 3 3 3 3 4 4 4 4 5 5 5 6 6 6 6 5 5 5 5 5 6 6 6 6
3 3 3 2 2 2 2 2 2 2 2 2 2 2 2 2 3 3 3 3 3 3 3 4 4 5 6 5 5 6 6 7 7 6 7 6 6 6 6 6 6 7 6
3 3 3 2 2 2 2 2 1 1 2 2 2 2 2 2 2 3 3 3 3 3 4 4 4 5 6 7 6 6 7 8 8 7 7 7 7 7 7 7 6 6 6
3 3 2 2 2 2 2 1 1 1 1 1 1 2 2 2 2 2 2 2 3 3 3 3 4 5 6 6 7 7 8 8 9 9 7 6 7 7 7 7 8 7 7
Wind_Direction
205 204 204 205 205 207 211 211 212 214 211 209 208 209 210 211 211 213 214 216 217 218 218 217 220 228 233 235 233 233 235 236 244 260 263 271 266 269 279 277 277 267 258
204 202 206 204 201 206 214 212 208 210 210 213 213 211 211 212 213 216 219 217 220 220 220 219 222 220 227 235 233 236 240 240 239 254 268 274 276 275 279 279 285 281 270
200 202 205 204 203 208 214 212 209 208 207 214 219 220 217 217 219 221 220 219 224 226 222 221 222 218 223 231 233 233 240 244 239 245 262 273 279 277 279 283 287 293 282
201 203 208 208 206 208 212 212 213 211 210 216 225 223 218 216 217 218 220 220 228 235 229 226 223 221 222 228 233 233 232 235 236 240 253 259 269 271 272 286 292 297 291
205 208 213 212 208 205 207 211 211 212 218 220 214 213 211 207 209 209 212 215 222 236 234 237 235 230 231 233 235 233 228 230 235 241 250 258 258 262 268 281 284 302 297
211 216 211 207 205 206 206 204 201 203 209 211 208 208 212 210 209 215 219 218 218 226 232 241 247 236 231 238 242 240 234 230 232 235 244 248 257 267 268 271 284 293 295
217 220 213 206 205 206 202 201 201 203 207 211 215 210 211 209 205 214 224 231 224 224 227 230 238 249 242 243 239 237 237 240 241 240 245 252 257 256 252 259 266 270 280
217 219 216 209 208 206 206 209 209 206 207 211 215 217 217 212 206 211 216 231 229 231 229 227 234 244 237 248 244 240 242 241 241 244 247 257 264 263 254 260 271 277 284
221 221 218 211 208 207 209 212 210 204 207 210 213 214 217 215 210 213 217 222 224 237 243 240 240 244 234 245 244 237 244 246 239 240 254 265 272 264 255 245 252 263 280
229 227 221 215 211 212 213 214 212 206 209 209 217 223 226 225 215 218 211 217 221 232 243 244 239 245 244 248 246 233 236 249 242 237 240 242 243 237 237 236 238 250 272
235 228 223 219 217 214 211 211 207 204 204 209 219 230 235 237 228 225 219 221 224 231 239 247 245 245 254 254 259 255 245 244 247 242 244 249 252 252 254 258 254 246 252
231 225 224 222 217 212 205 207 206 202 203 211 219 231 240 243 239 232 224 231 244 242 243 246 243 247 260 271 268 256 249 250 241 239 241 251 256 263 270 275 271 267 265
225 226 225 221 217 211 207 205 205 205 206 212 217 226 234 235 235 236 231 233 239 248 253 251 251 249 262 268 258 249 251 251 239 242 243 251 258 266 274 274 280 279 275
225 227 221 216 215 211 209 208 209 209 210 213 218 223 227 228 228 225 224 223 229 241 248 244 244 248 253 253 250 243 244 249 255 253 254 255 261 257 256 263 273 275 279
226 226 223 220 216 213 215 215 217 220 217 216 221 224 224 231 233 229 227 226 226 225 220 227 227 231 239 244 247 243 240 242 254 255 252 249 249 252 258 261 263 265 269
223 225 223 218 214 212 213 225 226 229 225 229 235 235 236 238 239 234 231 234 231 218 215 226 230 233 237 242 244 246 246 246 249 252 253 250 248 251 258 259 256 259 266
221 223 222 217 214 212 211 215 225 228 224 227 229 231 238 235 237 236 231 227 221 213 223 233 238 242 243 243 244 246 249 249 248 247 249 252 248 246 249 254 257 261 265
224 220 219 217 214 213 212 213 214 214 220 235 232 232 235 237 237 231 221 214 220 221 233 239 244 247 249 249 247 248 250 248 244 245 246 248 250 246 245 248 252 260 266
223 216 213 213 213 212 209 208 208 212 220 226 228 230 230 232 228 221 210 216 225 234 239 243 246 248 248 252 253 250 247 246 247 245 247 246 245 249 250 251 255 259 264
222 215 211 207 205 204 203 203 205 209 213 215 222 228 218 211 218 222 220 227 234 241 243 244 248 251 250 249 249 248 247 246 246 246 247 245 244 245 250 252 253 256 260
208 198 193 199 200 199 199 202 205 206 208 216 224 225 216 216 225 232 232 234 238 244 246 246 248 249 249 249 248 245 246 248 247 246 246 246 244 245 248 250 252 254 258
187 182 184 189 188 185 185 188 192 198 205 214 224 227 226 225 229 235 241 245 245 247 247 248 249 247 246 246 247 246 245 247 247 246 247 247 246 247 248 250 252 253 253
166 164 163 167 171 173 175 180 185 194 203 213 218 221 222 225 231 238 245 250 252 251 250 247 249 252 252 250 248 243 244 246 247 247 248 248 246 246 247 248 250 254 254
158 157 155 153 156 165 173 179 185 193 204 212 219 224 229 233 238 245 252 255 255 256 253 249 250 253 254 256 253 247 246 247 247 244 243 244 245 247 247 249 251 252 253
153 153 152 154 157 161 161 165 176 189 203 215 224 233 239 241 248 255 259 260 262 264 267 264 259 258 256 255 256 255 255 254 253 248 240 240 241 242 245 247 248 251 251
146 148 150 151 156 158 158 163 179 197 212 226 237 247 249 251 259 266 268 268 272 276 279 274 270 270 270 264 260 261 263 261 257 254 246 241 240 243 242 244 247 245 249
Height
1468 1469 1470 1471 1472 1473 1474 1474 1475 1475 1476 1476 1477 1478 1478 1479 1480 1480 1480 1481 1482 1482 1483 1483 1484 1485 1486 1487 1488 1488 1489 1490 1489 1489 1489 1489 1489 1489 1489 1488 1488 1487 1487
1466 1466 1467 1468 1469 1470 1470 1471 1471 1472 1473 1473 1474 1474 1475 1475 1476 1477 1477 1478 1478 1479 1479 1480 1480 1481 1482 1482 1483 1484 1484 1485 1485 1485 1485 1485 1484 1484 1484 1484 1483 1483 1482
1462 1463 1464 1464 1465 1466 1467 1468 1468 1469 1469 1470 1470 1471 1471 1472 1473 1473 1474 1474 1474 1475 1475 1476 1476 1477 1477 1478 1479 1479 1480 1480 1480 1480 1480 1480 1480 1480 1479 1479 1478 1478 1478
1459 1460 1460 1461 1462 1463 1464 1464 1465 1466 1466 1467 1467 1468 1468 1469 1469 1469 1470 1470 1471 1471 1471 1472 1472 1473 1473 1473 1474 1475 1475 1475 1475 1476 1475 1475 1476 1475 1475 1474 1474 1474 1473
1456 1457 1457 1458 1459 1460 1460 1461 1462 1463 1463 1464 1464 1464 1465 1465 1465 1466 1466 1466 1467 1467 1467 1468 1468 1468 1469 1469 1470 1470 1470 1471 1471 1471 1471 1471 1471 1471 1471 1470 1470 1470 1469
1453 1454 1454 1455 1456 1456 1457 1458 1459 1459 1460 1460 1460 1461 1461 1461 1462 1462 1462 1462 1463 1463 1463 1463 1464 1464 1465 1465 1465 1466 1466 1466 1466 1467 1467 1467 1467 1467 1467 1466 1466 1465 1465
1450 1451 1451 1452 1452 1453 1454 1455 1455 1456 1456 1456 1457 1457 1457 1457 1458 1458 1458 1458 1459 1459 1459 1460 1460 1460 1460 1460 1461 1461 1461 1462 1463 1463 1462 1462 1463 1463 1463 1462 1462 1461 1460
1448 1448 1449 1449 1449 1450 1450 1451 1452 1452 1453 1453 1453 1453 1453 1453 1454 1454 1455 1455 1455 1455 1456 1456 1456 1456 1456 1457 1457 1457 1457 1458 1458 1459 1459 1459 1459 1459 1459 1458 1457 1457 1456
1445 1445 1446 1446 1446 1446 1447 1447 1448 1449 1449 1449 1449 1449 1449 1450 1450 1451 1451 1451 1451 1451 1452 1453 1453 1453 1453 1453 1453 1453 1453 1453 1454 1454 1454 1454 1455 1454 1454 1454 1454 1453 1452
1442 1442 1442 1442 1443 1443 1443 1444 1445 1445 1445 1446 1446 1446 1446 1446 1447 1447 1448 1448 1448 1448 1448 1449 1449 1449 1450 1450 1449 1449 1449 1449 1450 1450 1450 1450 1450 1450 1450 1450 1449 1449 1448
1439 1439 1439 1439 1439 1440 1440 1441 1441 1442 1442 1442 1442 1442 1443 1443 1444 1444 1444 1445 1445 1445 1445 1446 1446 1446 1446 1446 1446 1446 1445 1446 1446 1446 1446 1446 1446 1446 1446 1445 1445 1445 1444
1435 1435 1435 1435 1436 1436 1437 1437 1438 1438 1438 1438 1439 1439 1439 1440 1440 1441 1441 1442 1442 1442 1442 1443 1443 1443 1443 1443 1442 1442 1442 1442 1442 1442 1442 1442 1442 1442 1441 1441 1441 1440 1440
1431 1431 1432 1432 1432 1433 1433 1434 1434 1434 1434 1435 1435 1435 1436 1437 1437 1438 1438 1438 1439 1439 1439 1439 1440 1440 1439 1439 1439 1439 1439 1439 1439 1438 1438 1438 1438 1437 1437 1437 1436 1436 1435
1427 1427 1428 1428 1428 1429 1429 1430 1430 1430 1430 1431 1431 1432 1432 1433 1434 1435 1435 1435 1435 1436 1436 1436 1437 1436 1436 1436 1436 1436 1435 1435 1435 1434 1434 1434 1433 1433 1433 1432 1432 1431 1430
1423 1423 1424 1424 1425 1425 1426 1426 1426 1427 1427 1428 1428 1429 1429 1430 1430 1431 1431 1432 1432 1433 1433 1433 1433 1433 1433 1432 1432 1432 1431 1431 1431 1430 1430 1430 1429 1429 1429 1429 1428 1427 1426
1419 1419 1420 1420 1421 1421 1422 1422 1422 1423 1424 1424 1425 1426 1426 1427 1427 1428 1428 1429 1429 1430 1430 1429 1429 1429 1429 1428 1428 1428 1428 1427 1427 1427 1426 1426 1425 1425 1425 1424 1424 1423 1422
1415 1415 1416 1416 1417 1417 1418 1418 1419 1420 1420 1421 1421 1422 1422 1423 1424 1424 1425 1425 1426 1426 1426 1425 1425 1425 1425 1424 1424 1424 1424 1423 1423 1422 1422 1421 1421 1421 1421 1420 1420 1419 1418
1411 1412 1412 1412 1413 1414 1414 1415 1415 1416 1416 1416 1418 1418 1419 1419 1420 1420 1421 1422 1421 1421 1421 1421 1421 1421 1421 1420 1420 1420 1419 1419 1418 1418 1418 1417 1417 1417 1416 1416 1416 1415 1415
1408 1408 1408 1409 1409 1410 1411 1411 1412 1413 1413 1414 1414 1415 1415 1416 1416 1417 1417 1417 1417 1417 1417 1417 1417 1417 1417 1416 1416 1415 1415 1414 1414 1414 1413 1413 1413 1412 1412 1412 1411 1411 1411
1404 1405 1405 1405 1406 1406 1407 1408 1409 1409 1410 1410 1411 1411 1412 1412 1412 1412 1413 1413 1413 1413 1413 1413 1413 1413 1412 1412 1411 1411 1411 1410 1410 1409 1409 1409 1409 1408 1408 1407 1407 1407 1406
1401 1401 1402 1402 1403 1403 1404 1405 1405 1406 1407 1407 1408 1408 1408 1408 1408 1409 1409 1409 1409 1409 1409 1409 1409 1408 1408 1408 1407 1407 1406 1406 1405 1405 1405 1404 1404 1404 1404 1403 1403 1402 1402
1398 1399 1399 1400 1400 1401 1401 1402 1403 1403 1404 1404 1404 1405 1405 1405 1405 1405 1405 1405 1405 1405 1405 1405 1404 1404 1403 1403 1403 1402 1402 1401 1401 1400 1400 1400 1399 1399 1399 1399 1398 1398 1397
1396 1396 1397 1397 1398 1399 1399 1400 1400 1401 1401 1402 1402 1402 1402 1402 1402 1402 1402 1402 1402 1401 1401 1401 1400 1400 1399 1399 1398 1398 1397 1396 1396 1396 1395 1395 1395 1395 1394 1394 1394 1394 1393
1394 1394 1395 1396 1396 1397 1397 1398 1398 1399 1399 1399 1399 1399 1399 1399 1399 1399 1399 1398 1398 1398 1397 1397 1396 1396 1395 1394 1394 1393 1392 1392 1391 1391 1391 1390 1390 1390 1390 1390 1390 1389 1389
1392 1393 1394 1394 1395 1395 1396 1396 1397 1397 1397 1397 1397 1397 1397 1397 1396 1396 1395 1395 1395 1394 1393 1393 1392 1391 1391 1390 1389 1388 1388 1387 1387 1386 1386 1386 1385 1385 1385 1385 1385 1385 1385
1391 1392 1392 1393 1394 1394 1394 1395 1395 1395 1395 1395 1395 1395 1394 1394 1394 1393 1392 1392 1391 1390 1390 1389 1388 1388 1387 1386 1385 1384 1384 1383 1383 1382 1382 1381 1381 1381 1381 1381 1381 1381 1380